When you browse on this site, cookies collect data to enhance your experience and personalize the content and advertising you see.
Visit our Privacy Policy to learn more. By continuing to use the site, you agree to this use of cookies and data.
  • în România
  • Lista ţărilor
  • Pe 7 zile
  • Temperatura apei
  • Meteo pe hartă
  • Widget-uri
  • user-avatar
    Intrare

    Meteo pe oră la Wiktoria

    Astăzi, 20 Septembrie, Vineri

    Timp Temperatura Precipitaţii Vânt Presiune Umiditate
    00:00 +15°C° 0 mm 5 m/s 752 mmHg 82%
    01:00 +14°C° 0 mm 4 m/s 752 mmHg 83%
    02:00 +14°C° 0 mm 5 m/s 752 mmHg 84%
    03:00 +14°C° 0 mm 6 m/s 752 mmHg 84%
    04:00 +13°C° 0 mm 6 m/s 752 mmHg 82%
    05:00 +13°C° 0 mm 6 m/s 752 mmHg 83%
    06:00 +13°C° 0 mm 6 m/s 752 mmHg 84%
    07:00 +13°C° 0 mm 6 m/s 753 mmHg 85%
    08:00 +14°C° 0 mm 6 m/s 753 mmHg 82%
    09:00 +16°C° 0 mm 7 m/s 753 mmHg 80%
    10:00 +17°C° 0 mm 7 m/s 753 mmHg 77%
    11:00 +20°C° 0 mm 7 m/s 752 mmHg 75%
    12:00 +21°C° 0 mm 7 m/s 751 mmHg 73%
    13:00 +22°C° 0 mm 7 m/s 751 mmHg 71%
    14:00 +22°C° 0 mm 6 m/s 750 mmHg 72%
    15:00 +22°C° 0 mm 6 m/s 749 mmHg 73%
    16:00 +22°C° 0 mm 6 m/s 749 mmHg 75%
    17:00 +21°C° 0 mm 6 m/s 749 mmHg 75%
    18:00 +20°C° 0 mm 6 m/s 748 mmHg 74%
    19:00 +19°C° 0 mm 6 m/s 748 mmHg 74%
    20:00 +19°C° 0 mm 6 m/s 748 mmHg 73%
    21:00 +18°C° 0 mm 7 m/s 748 mmHg 71%
    22:00 +17°C° 0 mm 7 m/s 747 mmHg 70%
    23:00 +17°C° 0 mm 7 m/s 746 mmHg 70%

    Mâine, 21 Septembrie, Sâmbătă

    Timp Temperatura Precipitaţii Vânt Presiune Umiditate
    00:00 +17°C° 0 mm 8 m/s 745 mmHg 71%
    01:00 +17°C° 0 mm 8 m/s 744 mmHg 71%
    02:00 +17°C° 0 mm 8 m/s 744 mmHg 69%
    03:00 +18°C° 0 mm 9 m/s 744 mmHg 67%
    04:00 +18°C° 0 mm 9 m/s 744 mmHg 65%
    05:00 +18°C° 0 mm 8 m/s 744 mmHg 64%
    06:00 +18°C° 0 mm 7 m/s 744 mmHg 63%
    07:00 +19°C° 0 mm 6 m/s 745 mmHg 63%
    08:00 +17°C° 0 mm 6 m/s 745 mmHg 67%
    09:00 +17°C° 0 mm 6 m/s 746 mmHg 71%
    10:00 +16°C° 0 mm 6 m/s 747 mmHg 75%
    11:00 +15°C° 0.6 mm 6 m/s 747 mmHg 81%
    12:00 +14°C° 0.6 mm 6 m/s 747 mmHg 87%
    13:00 +11°C° 0.6 mm 6 m/s 747 mmHg 93%
    14:00 +13°C° 0.3 mm 6 m/s 747 mmHg 89%
    15:00 +14°C° 0.3 mm 6 m/s 748 mmHg 84%
    16:00 +15°C° 0.3 mm 5 m/s 748 mmHg 79%
    17:00 +13°C° 0.1 mm 5 m/s 749 mmHg 82%
    18:00 +12°C° 0.1 mm 4 m/s 750 mmHg 84%
    19:00 +10°C° 0.1 mm 3 m/s 750 mmHg 86%
    20:00 +9°C° 0 mm 3 m/s 751 mmHg 88%
    21:00 +8°C° 0 mm 2 m/s 752 mmHg 91%
    22:00 +7°C° 0 mm 2 m/s 752 mmHg 93%
    23:00 +7°C° 0 mm 2 m/s 752 mmHg 94%

    Poimâine, 22 Septembrie, Duminică

    Timp Temperatura Precipitaţii Vânt Presiune Umiditate
    00:00 +7°C° 0 mm 2 m/s 753 mmHg 95%
    01:00 +6°C° 0 mm 2 m/s 753 mmHg 96%
    02:00 +5°C° 0 mm 2 m/s 753 mmHg 95%
    03:00 +5°C° 0 mm 2 m/s 753 mmHg 95%
    04:00 +4°C° 0 mm 2 m/s 754 mmHg 94%
    05:00 +4°C° 0 mm 2 m/s 754 mmHg 93%
    06:00 +5°C° 0 mm 1 m/s 755 mmHg 92%
    07:00 +5°C° 0 mm 1 m/s 755 mmHg 92%
    08:00 +6°C° 0 mm 2 m/s 756 mmHg 83%
    09:00 +8°C° 0 mm 2 m/s 756 mmHg 73%
    10:00 +10°C° 0 mm 2 m/s 756 mmHg 64%
    11:00 +11°C° 0 mm 3 m/s 756 mmHg 61%
    12:00 +12°C° 0 mm 3 m/s 755 mmHg 57%
    13:00 +13°C° 0 mm 3 m/s 755 mmHg 53%
    14:00 +13°C° 0 mm 3 m/s 755 mmHg 57%
    15:00 +12°C° 0 mm 3 m/s 754 mmHg 60%
    16:00 +12°C° 0 mm 3 m/s 754 mmHg 63%
    17:00 +11°C° 0.2 mm 3 m/s 754 mmHg 70%
    18:00 +9°C° 0.2 mm 2 m/s 755 mmHg 77%
    19:00 +8°C° 0.2 mm 2 m/s 755 mmHg 84%
    20:00 +8°C° 0 mm 1 m/s 755 mmHg 84%
    21:00 +8°C° 0 mm 1 m/s 756 mmHg 84%
    22:00 +6°C° 0 mm 0 m/s 756 mmHg 84%
    23:00 +6°C° 0 mm 0 m/s 756 mmHg 85%

    23 Septembrie, Luni

    Timp Temperatura Precipitaţii Vânt Presiune Umiditate
    00:00 +7°C° 0 mm 1 m/s 755 mmHg 86%
    01:00 +6°C° 0 mm 1 m/s 755 mmHg 87%
    02:00 +7°C° 0.5 mm 1 m/s 755 mmHg 89%
    03:00 +7°C° 0.5 mm 1 m/s 755 mmHg 92%
    04:00 +7°C° 0.5 mm 1 m/s 755 mmHg 94%
    05:00 +7°C° 0.6 mm 1 m/s 755 mmHg 95%
    06:00 +7°C° 0.6 mm 1 m/s 755 mmHg 96%
    07:00 +7°C° 0.6 mm 1 m/s 756 mmHg 97%
    08:00 +7°C° 0.1 mm 2 m/s 756 mmHg 93%
    09:00 +9°C° 0.1 mm 2 m/s 756 mmHg 88%
    10:00 +10°C° 0.1 mm 2 m/s 757 mmHg 84%
    11:00 +11°C° 0.2 mm 3 m/s 757 mmHg 81%
    12:00 +11°C° 0.2 mm 3 m/s 757 mmHg 79%
    13:00 +12°C° 0.2 mm 3 m/s 757 mmHg 76%
    14:00 +12°C° 0.1 mm 3 m/s 756 mmHg 73%
    15:00 +13°C° 0.1 mm 3 m/s 756 mmHg 70%
    16:00 +13°C° 0.1 mm 3 m/s 756 mmHg 67%
    17:00 +12°C° 0 mm 2 m/s 756 mmHg 73%
    18:00 +10°C° 0 mm 2 m/s 757 mmHg 78%
    19:00 +9°C° 0 mm 1 m/s 757 mmHg 84%
    20:00 +8°C° 0 mm 1 m/s 758 mmHg 86%
    21:00 +8°C° 0 mm 1 m/s 758 mmHg 88%
    22:00 +7°C° 0 mm 1 m/s 759 mmHg 90%
    23:00 +7°C° 0 mm 1 m/s 759 mmHg 90%

    24 Septembrie, Marţi

    Timp Temperatura Precipitaţii Vânt Presiune Umiditate
    00:00 +6°C° 0 mm 1 m/s 759 mmHg 91%
    01:00 +6°C° 0 mm 1 m/s 759 mmHg 92%
    02:00 +5°C° 0 mm 1 m/s 759 mmHg 92%
    03:00 +5°C° 0 mm 1 m/s 759 mmHg 92%
    04:00 +5°C° 0 mm 1 m/s 758 mmHg 92%
    05:00 +5°C° 0 mm 1 m/s 759 mmHg 92%
    06:00 +6°C° 0 mm 1 m/s 759 mmHg 92%
    07:00 +5°C° 0 mm 0 m/s 759 mmHg 92%
    08:00 +8°C° 0 mm 1 m/s 759 mmHg 85%
    09:00 +10°C° 0 mm 1 m/s 759 mmHg 78%
    10:00 +13°C° 0 mm 1 m/s 759 mmHg 71%
    11:00 +13°C° 0 mm 1 m/s 758 mmHg 67%
    12:00 +14°C° 0 mm 2 m/s 758 mmHg 64%
    13:00 +13°C° 0 mm 3 m/s 758 mmHg 60%
    14:00 +13°C° 0 mm 3 m/s 757 mmHg 60%
    15:00 +14°C° 0 mm 3 m/s 757 mmHg 59%
    16:00 +14°C° 0 mm 3 m/s 756 mmHg 59%
    17:00 +13°C° 0 mm 2 m/s 757 mmHg 67%
    18:00 +10°C° 0 mm 2 m/s 757 mmHg 74%
    19:00 +8°C° 0 mm 2 m/s 758 mmHg 81%
    20:00 +7°C° 0 mm 2 m/s 758 mmHg 84%
    21:00 +6°C° 0 mm 2 m/s 758 mmHg 86%
    22:00 +6°C° 0 mm 2 m/s 759 mmHg 88%
    23:00 +5°C° 0 mm 2 m/s 758 mmHg 88%

    25 Septembrie, Miercuri

    Timp Temperatura Precipitaţii Vânt Presiune Umiditate
    00:00 +5°C° 0 mm 2 m/s 758 mmHg 88%
    01:00 +5°C° 0 mm 1 m/s 758 mmHg 88%
    02:00 +5°C° 0 mm 1 m/s 758 mmHg 89%
    03:00 +5°C° 0 mm 1 m/s 758 mmHg 90%
    04:00 +5°C° 0 mm 1 m/s 758 mmHg 90%
    05:00 +5°C° 0 mm 1 m/s 758 mmHg 90%
    06:00 +6°C° 0 mm 1 m/s 758 mmHg 90%
    07:00 +6°C° 0 mm 1 m/s 758 mmHg 90%
    08:00 +8°C° 0 mm 1 m/s 758 mmHg 83%
    09:00 +10°C° 0 mm 2 m/s 758 mmHg 76%
    10:00 +13°C° 0 mm 2 m/s 758 mmHg 70%
    11:00 +14°C° 0 mm 2 m/s 758 mmHg 66%
    12:00 +15°C° 0 mm 2 m/s 757 mmHg 62%
    13:00 +16°C° 0 mm 3 m/s 757 mmHg 58%
    14:00 +16°C° 0 mm 3 m/s 756 mmHg 60%
    15:00 +16°C° 0 mm 3 m/s 756 mmHg 61%
    16:00 +16°C° 0 mm 3 m/s 755 mmHg 63%
    17:00 +13°C° 0 mm 3 m/s 756 mmHg 70%
    18:00 +11°C° 0 mm 3 m/s 756 mmHg 77%
    19:00 +9°C° 0 mm 3 m/s 756 mmHg 84%
    20:00 +9°C° 0 mm 2 m/s 757 mmHg 86%
    21:00 +8°C° 0 mm 2 m/s 757 mmHg 87%
    22:00 +7°C° 0 mm 2 m/s 757 mmHg 89%
    23:00 +6°C° 0 mm 2 m/s 757 mmHg 90%
    Arată mai mult